TAG11C ESGG-ESSA

Flight info

Callsign TAG11C
Flight time 0h 38m
Altitude 31000
Route LABAN N873 ARS T317 ELTOK
Aircraft A320/M-SDE3FGHIRWY/LB1

Departure

Time 2026-05-06 13:24
Airport Göteborg Landvetter Airport (ESGG)

Arrival

Time 2026-05-06 14:02
Airport Stockholm-Arlanda Airport (ESSA)
Time Latitude Longitude Altitude Speed Heading
2026-05-06 12:59 57.66937 12.29452 528 ft 0 kts 117°
2026-05-06 13:17 57.66946 12.29414 528 ft 4 kts 110°
2026-05-06 13:17 57.66953 12.29366 528 ft 4 kts 90°
2026-05-06 13:17 57.66951 12.29336 528 ft 4 kts 58°
2026-05-06 13:18 57.66943 12.29319 528 ft 0 kts 25°
2026-05-06 13:19 57.66944 12.29320 528 ft 0 kts 25°
2026-05-06 13:20 57.66969 12.29335 528 ft 8 kts
2026-05-06 13:20 57.66990 12.29277 528 ft 7 kts 280°
2026-05-06 13:20 57.67013 12.29186 528 ft 9 kts 300°
2026-05-06 13:20 57.67021 12.29167 528 ft 1 kts 315°
2026-05-06 13:21 57.67033 12.29165 528 ft 2 kts
2026-05-06 13:21 57.67056 12.29196 529 ft 6 kts 31°
2026-05-06 13:21 57.67103 12.29241 529 ft 9 kts 27°
2026-05-06 13:21 57.67171 12.29306 530 ft 13 kts 27°
2026-05-06 13:22 57.67260 12.29389 531 ft 16 kts 25°
2026-05-06 13:22 57.67367 12.29479 532 ft 17 kts 24°
2026-05-06 13:22 57.67436 12.29373 532 ft 15 kts 293°
2026-05-06 13:22 57.67462 12.29165 531 ft 18 kts 268°
2026-05-06 13:23 57.67411 12.28997 530 ft 13 kts 204°
2026-05-06 13:23 57.67280 12.28882 530 ft 40 kts 208°
2026-05-06 13:23 57.66816 12.28456 524 ft 106 kts 206°
2026-05-06 13:23 57.65996 12.27713 517 ft 154 kts 206°
2026-05-06 13:24 57.64955 12.26785 886 ft 166 kts 208°
2026-05-06 13:24 57.63934 12.25850 1561 ft 167 kts 208°
2026-05-06 13:24 57.62854 12.25072 2230 ft 170 kts 188°
2026-05-06 13:24 57.61630 12.25473 2597 ft 193 kts 158°
2026-05-06 13:25 57.60320 12.26506 2888 ft 216 kts 157°
2026-05-06 13:25 57.58899 12.27629 3563 ft 222 kts 156°
2026-05-06 13:25 57.57539 12.28923 4467 ft 220 kts 139°
2026-05-06 13:25 57.56755 12.31319 5272 ft 226 kts 104°
2026-05-06 13:26 57.56879 12.34383 5669 ft 253 kts 75°
2026-05-06 13:26 57.57481 12.37582 6297 ft 267 kts 70°
2026-05-06 13:26 57.58210 12.40812 7129 ft 273 kts 68°
2026-05-06 13:26 57.58974 12.44084 7957 ft 277 kts 67°
2026-05-06 13:27 57.59744 12.47423 8787 ft 282 kts 67°
2026-05-06 13:27 57.60498 12.50788 9562 ft 287 kts 68°
2026-05-06 13:27 57.61275 12.54271 10198 ft 298 kts 64°
2026-05-06 13:27 57.62429 12.57649 10425 ft 321 kts 50°
2026-05-06 13:28 57.64039 12.60741 10594 ft 344 kts 40°
2026-05-06 13:28 57.66031 12.63458 10758 ft 363 kts 32°
2026-05-06 13:28 57.68166 12.66093 11256 ft 372 kts 33°
2026-05-06 13:28 57.70322 12.68828 11881 ft 377 kts 33°
2026-05-06 13:29 57.72496 12.71623 12528 ft 381 kts 33°
2026-05-06 13:29 57.74687 12.74457 13163 ft 386 kts 33°
2026-05-06 13:29 57.76911 12.77335 13771 ft 390 kts 33°
2026-05-06 13:29 57.79161 12.80238 14294 ft 395 kts 33°
2026-05-06 13:30 57.81438 12.83170 14815 ft 399 kts 33°
2026-05-06 13:30 57.83743 12.86141 15342 ft 404 kts 32°
2026-05-06 13:30 57.86068 12.89142 15853 ft 408 kts 32°
2026-05-06 13:30 57.88422 12.92184 16349 ft 413 kts 32°
2026-05-06 13:31 57.90803 12.95265 16865 ft 417 kts 32°
2026-05-06 13:31 57.93204 12.98371 17387 ft 421 kts 32°
2026-05-06 13:31 57.95604 13.01486 17900 ft 426 kts 32°
2026-05-06 13:31 57.98056 13.04678 18393 ft 430 kts 32°
2026-05-06 13:32 58.00530 13.07903 18835 ft 435 kts 32°
2026-05-06 13:32 58.03031 13.11164 19272 ft 439 kts 32°
2026-05-06 13:32 58.05559 13.14466 19707 ft 444 kts 32°
2026-05-06 13:32 58.08112 13.17812 20142 ft 449 kts 32°
2026-05-06 13:33 58.10689 13.21194 20553 ft 453 kts 32°
2026-05-06 13:33 58.13288 13.24608 20961 ft 457 kts 32°
2026-05-06 13:33 58.15885 13.28153 21345 ft 463 kts 36°
2026-05-06 13:33 58.18257 13.32333 21723 ft 470 kts 45°
2026-05-06 13:34 58.20406 13.37039 22088 ft 474 kts 48°
2026-05-06 13:34 58.22557 13.41819 22457 ft 478 kts 48°
2026-05-06 13:34 58.24732 13.46655 22819 ft 482 kts 48°
2026-05-06 13:34 58.26918 13.51524 23171 ft 486 kts 48°
2026-05-06 13:35 58.29117 13.56435 23516 ft 490 kts 48°
2026-05-06 13:35 58.31335 13.61391 23852 ft 493 kts 48°
2026-05-06 13:35 58.33568 13.66386 24175 ft 496 kts 48°
2026-05-06 13:35 58.35781 13.71351 24491 ft 499 kts 48°
2026-05-06 13:36 58.38060 13.76480 24814 ft 502 kts 48°
2026-05-06 13:36 58.40290 13.81508 25073 ft 505 kts 48°
2026-05-06 13:36 58.42565 13.86650 25373 ft 509 kts 49°
2026-05-06 13:36 58.44851 13.91825 25680 ft 511 kts 49°
2026-05-06 13:37 58.47147 13.97031 25991 ft 514 kts 49°
2026-05-06 13:37 58.49455 14.02274 26352 ft 515 kts 49°
2026-05-06 13:37 58.51758 14.07517 26821 ft 514 kts 49°
2026-05-06 13:37 58.54053 14.12758 27326 ft 514 kts 49°
2026-05-06 13:38 58.56347 14.18022 27755 ft 515 kts 49°
2026-05-06 13:38 58.58644 14.23303 28130 ft 516 kts 49°
2026-05-06 13:38 58.60945 14.28598 28563 ft 516 kts 50°
2026-05-06 13:38 58.63244 14.33895 28997 ft 517 kts 50°
2026-05-06 13:39 58.65542 14.39192 29435 ft 517 kts 50°
2026-05-06 13:39 58.67843 14.44505 29887 ft 517 kts 50°
2026-05-06 13:39 58.70141 14.49825 30300 ft 517 kts 50°
2026-05-06 13:39 58.72432 14.55141 30708 ft 516 kts 50°
2026-05-06 13:40 58.74728 14.60484 30922 ft 517 kts 50°
2026-05-06 13:40 58.79356 14.71319 30964 ft 530 kts 51°
2026-05-06 13:41 58.84043 14.82355 30962 ft 533 kts 51°
2026-05-06 13:41 58.88733 14.93441 30959 ft 533 kts 51°
2026-05-06 13:42 58.93417 15.04551 30958 ft 533 kts 51°
2026-05-06 13:42 58.98100 15.15700 30959 ft 533 kts 51°
2026-05-06 13:43 59.02770 15.26884 30971 ft 534 kts 51°
2026-05-06 13:43 59.07407 15.38046 30964 ft 535 kts 51°
2026-05-06 13:44 59.12078 15.49326 30957 ft 535 kts 51°
2026-05-06 13:44 59.16736 15.60645 30928 ft 536 kts 51°
2026-05-06 13:45 59.21389 15.72022 30933 ft 536 kts 52°
2026-05-06 13:45 59.25343 15.84299 30443 ft 532 kts 61°
2026-05-06 13:45 59.27193 15.90601 28424 ft 540 kts 61°
2026-05-06 13:46 59.29065 15.97024 26633 ft 544 kts 60°
2026-05-06 13:46 59.30917 16.03403 25391 ft 533 kts 60°
2026-05-06 13:46 59.32736 16.09687 24044 ft 531 kts 60°
2026-05-06 13:46 59.34573 16.16042 22712 ft 536 kts 60°
2026-05-06 13:47 59.36373 16.22282 21691 ft 517 kts 60°
2026-05-06 13:47 59.38098 16.28285 20791 ft 495 kts 59°
2026-05-06 13:47 59.39761 16.34094 19833 ft 484 kts 59°
2026-05-06 13:47 59.41382 16.39771 18888 ft 481 kts 59°
2026-05-06 13:48 59.43004 16.45466 17949 ft 463 kts 59°
2026-05-06 13:48 59.44548 16.50893 17008 ft 446 kts 59°
2026-05-06 13:48 59.46015 16.56060 16168 ft 431 kts 59°
2026-05-06 13:48 59.47462 16.61170 15344 ft 425 kts 59°
2026-05-06 13:49 59.48887 16.66212 14549 ft 418 kts 59°
2026-05-06 13:49 59.50293 16.71192 13796 ft 416 kts 59°
2026-05-06 13:49 59.51696 16.76168 12992 ft 414 kts 59°
2026-05-06 13:49 59.53086 16.81109 12278 ft 410 kts 59°
2026-05-06 13:50 59.54456 16.85995 11573 ft 405 kts 59°
2026-05-06 13:50 59.55804 16.90809 11189 ft 393 kts 60°
2026-05-06 13:50 59.57089 16.95410 11058 ft 374 kts 60°
2026-05-06 13:50 59.58313 16.99807 10927 ft 358 kts 60°
2026-05-06 13:51 59.59483 17.04021 10796 ft 343 kts 60°
2026-05-06 13:51 59.60681 17.08119 10140 ft 347 kts 58°
2026-05-06 13:51 59.61908 17.12123 10007 ft 334 kts 57°
2026-05-06 13:51 59.63092 17.15975 9901 ft 323 kts 58°
2026-05-06 13:52 59.64248 17.19695 9769 ft 311 kts 58°
2026-05-06 13:52 59.65367 17.23278 9619 ft 302 kts 57°
2026-05-06 13:52 59.66440 17.26780 9440 ft 295 kts 57°
2026-05-06 13:52 59.67489 17.30231 9141 ft 292 kts 58°
2026-05-06 13:53 59.68533 17.33658 8807 ft 290 kts 58°
2026-05-06 13:53 59.69575 17.37061 8482 ft 288 kts 58°
2026-05-06 13:53 59.70614 17.40437 8153 ft 286 kts 58°
2026-05-06 13:53 59.71649 17.43788 7851 ft 284 kts 58°
2026-05-06 13:54 59.72681 17.47115 7539 ft 282 kts 58°
2026-05-06 13:54 59.73710 17.50425 7237 ft 281 kts 58°
2026-05-06 13:54 59.74736 17.53714 6932 ft 279 kts 58°
2026-05-06 13:54 59.75747 17.56940 6636 ft 278 kts 58°
2026-05-06 13:55 59.76766 17.60182 6384 ft 278 kts 58°
2026-05-06 13:55 59.77792 17.63436 6046 ft 278 kts 58°
2026-05-06 13:55 59.78815 17.66676 5715 ft 276 kts 58°
2026-05-06 13:55 59.79833 17.69901 5423 ft 274 kts 58°
2026-05-06 13:56 59.80842 17.73097 5133 ft 272 kts 58°
2026-05-06 13:56 59.81843 17.76265 4848 ft 270 kts 58°
2026-05-06 13:56 59.82838 17.79419 4529 ft 269 kts 58°
2026-05-06 13:56 59.83577 17.82805 4206 ft 267 kts 81°
2026-05-06 13:57 59.83663 17.86462 3903 ft 264 kts 91°
2026-05-06 13:57 59.83617 17.90085 3641 ft 261 kts 93°
2026-05-06 13:57 59.83562 17.93669 3412 ft 258 kts 93°
2026-05-06 13:57 59.83499 17.97219 3155 ft 256 kts 93°
2026-05-06 13:58 59.83159 18.00661 2884 ft 254 kts 117°
2026-05-06 13:58 59.81991 18.03082 2772 ft 238 kts 158°
2026-05-06 13:58 59.80438 18.03418 2772 ft 221 kts 197°
2026-05-06 13:58 59.79200 18.01842 2774 ft 207 kts 223°
2026-05-06 13:59 59.78033 18.00371 2715 ft 197 kts 192°
2026-05-06 13:59 59.76684 18.00136 2516 ft 193 kts 188°
2026-05-06 13:59 59.75370 17.99711 2307 ft 188 kts 191°
2026-05-06 13:59 59.74096 17.99245 2035 ft 184 kts 191°
2026-05-06 14:00 59.72871 17.98796 1784 ft 176 kts 191°
2026-05-06 14:00 59.71690 17.98365 1557 ft 167 kts 191°
2026-05-06 14:00 59.70626 17.97977 1332 ft 147 kts 190°
2026-05-06 14:00 59.69649 17.97622 1121 ft 140 kts 190°
2026-05-06 14:01 59.68702 17.97281 914 ft 136 kts 191°
2026-05-06 14:01 59.67771 17.96974 733 ft 136 kts 190°
2026-05-06 14:01 59.66838 17.96646 546 ft 135 kts 193°
2026-05-06 14:01 59.66229 17.96406 440 ft 135 kts 196°
2026-05-06 14:02 59.64998 17.95944 213 ft 134 kts 193°
2026-05-06 14:02 59.64124 17.95600 147 ft 114 kts 189°
2026-05-06 14:02 59.63707 17.95458 145 ft 63 kts 190°
2026-05-06 14:02 59.63499 17.95372 144 ft 21 kts 197°
2026-05-06 14:03 59.63349 17.95216 140 ft 27 kts 219°
2026-05-06 14:03 59.63251 17.94988 138 ft 13 kts 260°
2026-05-06 14:03 59.63262 17.94921 138 ft 0 kts 315°
2026-05-06 14:03 59.63286 17.94914 138 ft 7 kts 11°
2026-05-06 14:04 59.63367 17.94940 138 ft 16 kts
2026-05-06 14:04 59.63505 17.94982 138 ft 24 kts
2026-05-06 14:04 59.63691 17.95048 138 ft 29 kts
2026-05-06 14:04 59.63897 17.95127 138 ft 31 kts 11°
2026-05-06 14:05 59.64117 17.95212 138 ft 33 kts 11°
2026-05-06 14:05 59.64347 17.95293 138 ft 31 kts
2026-05-06 14:05 59.64564 17.95357 138 ft 33 kts 14°
2026-05-06 14:05 59.64794 17.95452 138 ft 35 kts
2026-05-06 14:06 59.65040 17.95513 138 ft 36 kts 359°
2026-05-06 14:06 59.65280 17.95387 138 ft 34 kts 346°
2026-05-06 14:06 59.65468 17.95292 138 ft 28 kts 348°
2026-05-06 14:06 59.65647 17.95197 138 ft 25 kts 345°
2026-05-06 14:07 59.65749 17.95050 138 ft 17 kts 275°
2026-05-06 14:07 59.65723 17.94804 138 ft 19 kts 256°
2026-05-06 14:07 59.65686 17.94530 138 ft 22 kts 254°
2026-05-06 14:07 59.65649 17.94224 138 ft 24 kts 257°
2026-05-06 14:08 59.65606 17.93890 138 ft 26 kts 256°
2026-05-06 14:08 59.65558 17.93531 138 ft 28 kts 254°
2026-05-06 14:08 59.65509 17.93151 138 ft 29 kts 258°
2026-05-06 14:08 59.65464 17.92843 138 ft 22 kts 248°
2026-05-06 14:09 59.65380 17.92681 138 ft 15 kts 165°
2026-05-06 14:09 59.65276 17.92782 137 ft 17 kts 154°
2026-05-06 14:09 59.65224 17.92907 137 ft 12 kts 69°
2026-05-06 14:09 59.65239 17.92979 137 ft 4 kts 67°
2026-05-06 14:10 59.65244 17.93006 137 ft 0 kts 68°